Regional Weather Roundup
Issued by NWS Midland/Odessa, TX

Home | Current Version | Previous Version | Text Only | Print | Product List | Glossary On
Versions: 1 2 3 4 5 6 7 8 9 10 11 12 13 14 15 16 17 18 19 20 21 22 23 24 25 26 27 28 29 30 31 32 33 34 35 36 37 38 39 40 41 42 43 44 45 46 47 48 49 50
000
ASUS44 KMAF 031710
RWRMAF
MIDLAND AREA WEATHER ROUNDUP
NATIONAL WEATHER SERVICE MIDLAND TX
1200 PM CDT THU SEP 03 2015

...IN SOUTHWEST TEXAS AND SOUTHEAST NEW MEXICO...

CITY           SKY/WX    TMP DP  RH WIND       PRES   REMARKS
ALPINE         SUNNY     86  49  28 N5        30.16S
ANDREWS        FAIR      87  55  33 S12G17    30.05F
ARTESIA        SUNNY     84  55  37 SW3       30.04S
BIG SPRING     SUNNY     83  58  43 S9        30.06S
CARLSBAD       SUNNY     88  55  32 E7        30.02S
DRYDEN           N/A     87  66  49 S13       30.00S
FORT STOCKTON  SUNNY     88  57  34 E12G17    30.03S
GUAD PASS      MOSUNNY   83  50  31 E8        30.18S
HOBBS          SUNNY     82  57  42 SE15      30.08S
MARFA          SUNNY     82  54  36 E6        30.15S
MIDLAND AIRPK  SUNNY     88  56  32 S12       30.04F
MIDLAND INTL   SUNNY     88  58  36 S13G18    30.04S
ODESSA         SUNNY     87  56  34 S14G24    30.05S
PECOS          SUNNY     87  53  31 E8        30.00S
PRESIDIO       NOT AVBL
SEMINOLE       SUNNY     86  55  35 S12G17    30.07S
SNYDER         SUNNY     83  63  50 SW7       30.05S
WINK           SUNNY     88  58  36 SE15      30.01R
$$
...OTHER STATIONS IN TEXAS...

CITY           SKY/WX    TMP DP  RH WIND       PRES   REMARKS
ABILENE        SUNNY     87  65  47 SW12      30.02F
AMARILLO       MOSUNNY   89  56  32 S10G20    30.01S
AUSTIN         PTSUNNY   85  68  56 CALM      29.97S
BROWNSVILLE    HVY RAIN  81  78  91 S6        29.91F FOG
CORPUS CHRISTI PTSUNNY   89  72  56 VRB3      29.92F
DALLAS FTW     PTSUNNY   90  63  40 S8        29.98F
DEL RIO        MOSUNNY   90  71  53 SE8       29.95F
EL PASO        CLOUDY    85  51  31 CALM      30.07F
HOUSTON INT    MOSUNNY   86  74  67 E7        29.97F
LUBBOCK        MOSUNNY   85  58  39 SW15G21   30.05S
SAN ANGELO     MOSUNNY   87  67  51 CALM      30.01F
SAN ANTONIO    PTSUNNY   86  69  56 VRB6      29.98S
WACO           MOSUNNY   86  69  56 SE6       29.99S
WICHITA FALLS  NOT AVBL
$$
...OTHER LOCATIONS IN NEW MEXICO...

CITY           SKY/WX    TMP DP  RH WIND       PRES   REMARKS
ALAMAGORDO     PTSUNNY   82  46  28 W6        30.10S
ALBUQUERQUE    MOSUNNY   74  49  41 W8        30.19S
CANNON AFB     SUNNY     87  50  28 SW12      30.07S
CLOVIS         SUNNY     88  52  29 SW12      30.07F
HOLLOMAN AFB   PTSUNNY   84  48  28 W3        30.08R
ROSWELL        SUNNY     85  53  33 NE7       30.04F
RUIDOSO        PTSUNNY   73  45  35 N6        30.28S
SANTA FE       CLOUDY    70  47  43 SW10      30.22S
TRUTH OR CONSE PTSUNNY   78  54  43 VRB3      30.14R
TUCUMCARI      PTSUNNY   88  48  25 SW17      30.02F
$$




USA.gov is the U.S. government's official web portal to all federal, state and local government web resources and services.